TimeCET,TemperatureF,Dew PointF,Humidity,Sea Level PressureIn,VisibilityMPH,Wind Direction,Wind SpeedMPH,Gust SpeedMPH,PrecipitationIn,Events,Conditions,WindDirDegrees,DateUTC
12:00 AM,57.2,57.2,100,29.83,6.2,Variable,1.2,-,N/A,,Mostly Cloudy,0,2012-11-18 23:00:00
12:30 AM,57.2,57.2,100,29.83,6.2,NNE,2.3,-,N/A,,Mostly Cloudy,30,2012-11-18 23:30:00
1:00 AM,57,55,90,29.84,9,Calm,Calm,,,,Partly Cloudy,,2012-11-19 00:00:00
1:00 AM,59.0,57.2,94,29.83,6.2,Calm,Calm,-,N/A,,Mostly Cloudy,0,2012-11-19 00:00:00
1:30 AM,59.0,57.2,94,29.83,6.2,Variable,1.2,-,N/A,,Mostly Cloudy,0,2012-11-19 00:30:00
2:00 AM,59.0,57.2,94,29.83,6.2,ENE,1.2,-,N/A,,Mostly Cloudy,60,2012-11-19 01:00:00
2:30 AM,59.0,57.2,94,29.83,6.2,NNE,2.3,-,N/A,,Mostly Cloudy,30,2012-11-19 01:30:00
3:00 AM,59.0,57.2,94,29.83,6.2,Calm,Calm,-,N/A,,Mostly Cloudy,0,2012-11-19 02:00:00
3:30 AM,59.0,57.2,94,29.83,6.2,NE,1.2,-,N/A,,Mostly Cloudy,50,2012-11-19 02:30:00
4:00 AM,59.0,57.2,94,29.83,6.2,ENE,4.6,-,N/A,,Mostly Cloudy,70,2012-11-19 03:00:00
4:30 AM,60.8,57.2,88,29.83,6.2,ENE,10.4,-,N/A,,Mostly Cloudy,60,2012-11-19 03:30:00
5:00 AM,60.8,57.2,88,29.86,6.2,NE,9.2,-,N/A,,Mostly Cloudy,50,2012-11-19 04:00:00
5:30 AM,60.8,57.2,88,29.86,6.2,NE,12.7,-,N/A,,Mostly Cloudy,50,2012-11-19 04:30:00
6:00 AM,60.8,57.2,88,29.86,6.2,NE,10.4,-,N/A,,Mostly Cloudy,40,2012-11-19 05:00:00
6:30 AM,60.8,57.2,88,29.86,6.2,NNE,9.2,-,N/A,,Scattered Clouds,20,2012-11-19 05:30:00
7:00 AM,59,54,79,29.89,9,NNE,9.2,,,,Scattered Clouds,30,2012-11-19 06:00:00
7:00 AM,60.8,57.2,88,29.89,6.2,NNE,11.5,-,N/A,,Scattered Clouds,30,2012-11-19 06:00:00
7:30 AM,59.0,57.2,94,29.89,6.2,NE,11.5,-,N/A,,Mostly Cloudy,50,2012-11-19 06:30:00
8:00 AM,59.0,57.2,94,29.89,6.2,NE,9.2,-,N/A,,Mostly Cloudy,40,2012-11-19 07:00:00
9:00 AM,60.8,55.4,82,29.92,6.2,NNE,6.9,-,N/A,,Scattered Clouds,30,2012-11-19 08:00:00
9:30 AM,62.6,55.4,77,29.95,6.2,NE,9.2,-,N/A,,Scattered Clouds,40,2012-11-19 08:30:00
10:30 AM,62.6,55.4,77,29.95,6.2,NE,13.8,-,N/A,,Scattered Clouds,40,2012-11-19 09:30:00
11:00 AM,62.6,55.4,77,29.95,6.2,NE,9.2,-,N/A,,Partly Cloudy,40,2012-11-19 10:00:00
11:30 AM,64.4,55.4,73,29.95,6.2,NE,11.5,-,N/A,,Partly Cloudy,40,2012-11-19 10:30:00
12:00 PM,64.4,55.4,73,29.95,6.2,NE,11.5,-,N/A,,Partly Cloudy,40,2012-11-19 11:00:00
12:30 PM,66.2,53.6,64,29.95,6.2,ENE,12.7,-,N/A,,Partly Cloudy,60,2012-11-19 11:30:00
1:00 PM,65,50,47,29.96,19,ENE,11.5,,,,Scattered Clouds,60,2012-11-19 12:00:00
1:00 PM,66.2,53.6,64,29.95,6.2,NE,13.8,-,N/A,,Partly Cloudy,50,2012-11-19 12:00:00
1:30 PM,66.2,51.8,60,29.95,6.2,ENE,13.8,-,N/A,,Partly Cloudy,60,2012-11-19 12:30:00
2:00 PM,66.2,51.8,60,29.95,6.2,ENE,11.5,-,N/A,,Partly Cloudy,70,2012-11-19 13:00:00
2:30 PM,66.2,50.0,56,29.95,6.2,ENE,12.7,-,N/A,,Partly Cloudy,60,2012-11-19 13:30:00
3:00 PM,66.2,48.2,52,29.95,6.2,ENE,10.4,-,N/A,,Partly Cloudy,70,2012-11-19 14:00:00
3:30 PM,66.2,50.0,56,29.95,6.2,ENE,9.2,-,N/A,,Partly Cloudy,70,2012-11-19 14:30:00
4:00 PM,66.2,50.0,56,29.98,6.2,ENE,6.9,-,N/A,,Partly Cloudy,60,2012-11-19 15:00:00
4:30 PM,64.4,50.0,59,29.98,6.2,ENE,8.1,-,N/A,,Partly Cloudy,60,2012-11-19 15:30:00
5:00 PM,64.4,51.8,64,29.98,6.2,Variable,2.3,-,N/A,,Partly Cloudy,0,2012-11-19 16:00:00
5:30 PM,62.6,51.8,68,29.98,6.2,Calm,Calm,-,N/A,,Partly Cloudy,0,2012-11-19 16:30:00
6:00 PM,60.8,53.6,77,30.01,6.2,Variable,2.3,-,N/A,,Partly Cloudy,0,2012-11-19 17:00:00
6:30 PM,59.0,51.8,77,30.01,6.2,Calm,Calm,-,N/A,,Partly Cloudy,0,2012-11-19 17:30:00
7:00 PM,58,49,64,30.03,16,Calm,Calm,,,,Scattered Clouds,,2012-11-19 18:00:00
7:00 PM,59.0,51.8,77,30.01,6.2,NW,2.3,-,N/A,,Partly Cloudy,320,2012-11-19 18:00:00
7:30 PM,57.2,51.8,82,30.04,6.2,Calm,Calm,-,N/A,,Partly Cloudy,0,2012-11-19 18:30:00
8:00 PM,57.2,53.6,88,30.04,6.2,North,3.5,-,N/A,,Partly Cloudy,10,2012-11-19 19:00:00
8:30 PM,55.4,51.8,88,30.04,6.2,NE,2.3,-,N/A,,Partly Cloudy,50,2012-11-19 19:30:00
9:00 PM,53.6,50.0,88,30.04,6.2,Calm,Calm,-,N/A,,Partly Cloudy,0,2012-11-19 20:00:00
9:30 PM,53.6,50.0,88,30.04,6.2,Calm,Calm,-,N/A,,Partly Cloudy,0,2012-11-19 20:30:00
10:00 PM,51.8,50.0,94,30.04,6.2,Variable,1.2,-,N/A,,Partly Cloudy,0,2012-11-19 21:00:00
10:30 PM,51.8,50.0,94,30.04,6.2,Calm,Calm,-,N/A,,Partly Cloudy,0,2012-11-19 21:30:00
11:00 PM,50.0,50.0,100,30.04,-9999.0,Calm,Calm,-,N/A,,Clear,0,2012-11-19 22:00:00
11:30 PM,50.0,48.2,94,30.04,-9999.0,Calm,Calm,-,N/A,,Clear,0,2012-11-19 22:30:00